Regional Weather Roundup
Issued by NWS

Home | Current Version | Previous Version | Text Only | Print | Product List | Glossary Off
Versions: 1 2 3 4 5 6 7 8 9 10 11 12 13 14 15 16 17 18 19 20 21 22 23 24 25 26 27 28 29 30 31 32 33 34 35 36 37 38 39 40 41 42 43 44 45 46 47 48 49 50

000
ASUS43 KOAX 130802
RWRNE

WEATHER ROUNDUP FOR NEBRASKA
NATIONAL WEATHER SERVICE OMAHA NE
200 AM CST WED DEC 13 2017

NOTES: SATELLITE DATA IS BEING USED TO AUGMENT CLOUD COVER ABOVE
       12000 FEET.
       "FAIR" INDICATES FEW OR NO CLOUDS BELOW 12,000 FEET WITH NO
       SIGNIFICANT WEATHER AND/OR OBSTRUCTIONS TO VISIBILITY.


NEZ001>004-019>022-054>056-130900-
NEBRASKA PANHANDLE

CITY           SKY/WX    TMP DP  RH WIND       PRES   REMARKS
SCOTTSBLUFF    CLOUDY    35  15  44 NW10      30.02S WCI  27
ALLIANCE       CLOUDY    41  15  35 W13       29.95S
CHADRON        CLOUDY    48  12  23 W21       29.96R
GORDON         PTSUNNY   42  20  41 W12       29.92R
KIMBALL        CLOUDY    44  10  25 NW15      30.02F
SIDNEY         CLOUDY    43  11  27 NW13      30.00R
$$

NEZ057>060-069>072-079>082-130900-
SOUTHWEST NEBRASKA

CITY           SKY/WX    TMP DP  RH WIND       PRES   REMARKS
NORTH PLATTE   CLOUDY    26  19  74 NW9       29.86F WCI  17
IMPERIAL       CLOUDY    40  13  33 W14       29.92F WCI  32
LEXINGTON      CLOUDY    37  21  53 NW21      29.83S WCI  26
MCCOOK         CLOUDY    41  17  38 W21G29    29.87F
OGALLALA       CLOUDY    48  14  25 NW12      29.90F
$$

NEZ005>010-023>029-035>040-094-130900-
NORTH CENTRAL NEBRASKA

CITY           SKY/WX    TMP DP  RH WIND       PRES   REMARKS
VALENTINE      PTCLDY    54  17  23 NW18G33   29.80R
AINSWORTH      CLOUDY    49  20  31 NW21G30   29.77S
BROKEN BOW     CLOUDY    46  19  34 NW18      29.80R
O`NEILL        PTCLDY    51  21  31 W24G31    29.69F
ORD            CLOUDY    46  19  34 NW14      29.75S
THEDFORD       CLOUDY    42  21  44 W12G18    29.84F
$$

NEZ041-046>049-061>064-073>077-083>087-130900-
SOUTH CENTRAL NEBRASKA

CITY           SKY/WX    TMP DP  RH WIND       PRES   REMARKS
GRAND ISLAND   CLEAR     39  22  50 W14       29.75F WCI  31
AURORA         CLEAR     38  21  50 W14       29.73S WCI  30
HASTINGS       CLEAR     41  20  43 W16       29.76F
HEBRON         CLEAR     40  21  46 W6        29.75F
HOLDREGE       PTCLDY    42  21  44 W9        29.81S
KEARNEY        CLEAR     43  19  38 NW14      29.79S
$$

NEZ011>018-030>034-042>045-130900-
NORTHEAST NEBRASKA

CITY           SKY/WX    TMP DP  RH WIND       PRES   REMARKS
NORFOLK        CLOUDY    40  22  48 W12       29.65F WCI  33
ALBION         CLOUDY    48  21  34 NW12      29.70F
BLAIR          CLEAR     37  25  61 SW12      29.66F WCI  29
FREMONT        CLEAR     40  23  49 W13       29.67F WCI  33
TEKAMAH        PTCLDY    38  22  52 S9        29.63F WCI  31
WAYNE          CLOUDY    45  17  33 W15       29.61F
$$

NEZ050>053-065>068-078-088>093-130900-
SOUTHEAST NEBRASKA

CITY           SKY/WX    TMP DP  RH WIND       PRES   REMARKS
LINCOLN        CLEAR     35  23  61 S3        29.72F
OMAHA EPPLEY   PTCLDY    29  23  78 SE12      29.67F WCI  19
BEATRICE       CLEAR     38  24  55 SW10      29.73F WCI  32
FALLS CITY     CLEAR     39  24  55 SW8       29.74F WCI  33
NEBRASKA CITY  CLEAR     38  26  60 SW16      29.69F WCI  29
PLATTSMOUTH    CLEAR     40  25  55 SW14      29.68F WCI  33
$$

NEZ044-045-051>053-067-130900-
OMAHA AREA

CITY           SKY/WX    TMP DP  RH WIND       PRES   REMARKS
OMAHA EPPLEY   PTCLDY    29  23  78 SE12      29.67F WCI  19
BLAIR          CLEAR     37  25  61 SW12      29.66F WCI  29
FREMONT        CLEAR     40  23  49 W13       29.67F WCI  33
MILLARD        CLEAR     38  26  60 CALM      29.68F
OFFUTT AFB     CLEAR     24  20  85 CALM      29.67F
PLATTSMOUTH    CLEAR     40  25  55 SW14      29.68F WCI  33
WAHOO          FAIR      41  22  47 SW10G17   29.68F
$$




USA.gov is the U.S. government's official web portal to all federal, state and local government web resources and services.